TimeCST,TemperatureF,Dew PointF,Humidity,Sea Level PressureIn,VisibilityMPH,Wind Direction,Wind SpeedMPH,Gust SpeedMPH,PrecipitationIn,Events,Conditions,WindDirDegrees,DateUTC
12:56 AM,15.1,10.9,84,30.36,10.0,West,6.9,-,N/A,,Clear,280,2013-02-15 06:56:00
1:56 AM,14.0,10.0,84,30.37,10.0,WNW,9.2,-,N/A,,Clear,290,2013-02-15 07:56:00
2:56 AM,15.1,10.9,84,30.36,10.0,WSW,5.8,-,N/A,,Mostly Cloudy,250,2013-02-15 08:56:00
3:56 AM,12.0,8.1,84,30.37,10.0,West,5.8,-,N/A,,Partly Cloudy,260,2013-02-15 09:56:00
4:46 AM,15.8,10.4,79,30.30,10.0,West,4.6,-,N/A,,Mostly Cloudy,260,2013-02-15 10:46:00
4:54 AM,15.8,10.4,79,30.30,10.0,West,6.9,-,N/A,,Scattered Clouds,260,2013-02-15 10:54:00
4:56 AM,15.1,10.0,80,30.38,10.0,West,8.1,-,N/A,,Partly Cloudy,270,2013-02-15 10:56:00
5:56 AM,16.0,10.9,81,30.38,10.0,West,9.2,-,N/A,,Clear,270,2013-02-15 11:56:00
6:56 AM,15.1,10.0,80,30.39,10.0,West,6.9,-,N/A,,Partly Cloudy,280,2013-02-15 12:56:00
7:56 AM,19.9,14.0,78,30.40,10.0,WSW,3.5,-,N/A,,Overcast,250,2013-02-15 13:56:00
8:56 AM,21.0,16.0,81,30.39,10.0,Calm,Calm,-,N/A,,Overcast,0,2013-02-15 14:56:00
9:56 AM,23.0,17.1,78,30.38,10.0,Calm,Calm,-,N/A,,Overcast,0,2013-02-15 15:56:00
10:42 AM,24.8,17.6,74,30.30,2.5,SW,6.9,-,0.00,Snow,Light Snow,230,2013-02-15 16:42:00
10:49 AM,24.8,17.6,74,30.30,1.8,SW,5.8,-,0.00,Snow,Light Snow,230,2013-02-15 16:49:00
10:56 AM,24.1,18.0,77,30.37,1.2,SW,5.8,-,0.00,Snow,Light Snow,220,2013-02-15 16:56:00
11:05 AM,24.8,19.4,80,30.29,3.0,SSW,5.8,-,0.00,Snow,Light Snow,210,2013-02-15 17:05:00
11:56 AM,28.0,21.0,75,30.36,10.0,WSW,6.9,-,0.00,,Overcast,240,2013-02-15 17:56:00
12:30 PM,28.4,21.2,74,30.27,10.0,West,11.5,-,N/A,,Overcast,260,2013-02-15 18:30:00
12:56 PM,30.9,19.9,64,30.33,10.0,WNW,9.2,-,N/A,,Overcast,300,2013-02-15 18:56:00
1:45 PM,28.4,21.2,74,30.25,1.8,NW,17.3,26.5,0.00,Snow,Light Snow,310,2013-02-15 19:45:00
1:53 PM,28.4,21.2,74,30.25,3.0,NW,20.7,25.3,0.00,Snow,Light Snow,320,2013-02-15 19:53:00
1:56 PM,28.0,21.9,78,30.33,3.0,NW,15.0,25.3,0.00,Snow,Light Snow,310,2013-02-15 19:56:00
2:12 PM,28.4,23.0,80,30.25,1.8,NNW,17.3,-,0.00,Snow,Light Snow,330,2013-02-15 20:12:00
2:24 PM,28.4,21.2,74,30.25,3.0,NW,17.3,-,0.00,Snow,Light Snow,320,2013-02-15 20:24:00
2:44 PM,28.4,23.0,80,30.25,1.8,NNW,18.4,23.0,0.00,Snow,Light Snow,340,2013-02-15 20:44:00
2:56 PM,28.0,21.0,75,30.32,6.0,NW,17.3,-,0.00,Snow,Light Snow,320,2013-02-15 20:56:00
3:14 PM,28.4,23.0,80,30.25,2.5,NW,16.1,-,0.00,Snow,Light Snow,320,2013-02-15 21:14:00
3:21 PM,28.4,21.2,74,30.26,2.0,NNW,16.1,-,0.00,Snow,Light Snow,330,2013-02-15 21:21:00
3:25 PM,26.6,23.0,86,30.26,0.5,NNW,19.6,27.6,0.00,Fog-Snow,Snow,330,2013-02-15 21:25:00
3:33 PM,26.6,21.2,80,30.26,0.2,NNW,21.9,27.6,0.00,Fog-Snow,Snow,330,2013-02-15 21:33:00
3:36 PM,26.6,21.2,80,30.26,0.5,NNW,19.6,27.6,0.00,Fog-Snow,Light Snow,340,2013-02-15 21:36:00
3:41 PM,26.6,21.2,80,30.26,2.0,NNW,21.9,27.6,0.00,Snow,Light Snow,330,2013-02-15 21:41:00
3:48 PM,26.6,19.4,74,30.27,10.0,NNW,23.0,29.9,0.00,,Overcast,330,2013-02-15 21:48:00
3:56 PM,27.0,19.0,72,30.35,6.0,NNW,19.6,29.9,0.00,Snow,Light Snow,340,2013-02-15 21:56:00
4:49 PM,24.8,15.8,69,30.30,10.0,NNW,19.6,-,0.00,,Scattered Clouds,340,2013-02-15 22:49:00
4:56 PM,25.0,17.1,72,30.39,10.0,NNW,19.6,27.6,0.00,,Mostly Cloudy,330,2013-02-15 22:56:00
5:04 PM,24.8,15.8,69,30.31,10.0,NNW,21.9,27.6,N/A,,Mostly Cloudy,340,2013-02-15 23:04:00
5:12 PM,24.8,15.8,69,30.31,10.0,NNW,18.4,-,N/A,,Overcast,340,2013-02-15 23:12:00
5:51 PM,23.0,15.8,74,30.32,10.0,North,15.0,-,N/A,,Mostly Cloudy,350,2013-02-15 23:51:00
5:56 PM,23.0,15.1,72,30.40,10.0,North,16.1,23.0,N/A,,Mostly Cloudy,350,2013-02-15 23:56:00
6:16 PM,21.2,14.0,74,30.32,10.0,North,12.7,-,N/A,,Scattered Clouds,350,2013-02-16 00:16:00
6:56 PM,21.0,15.1,78,30.41,10.0,NNW,10.4,-,N/A,,Mostly Cloudy,330,2013-02-16 00:56:00
7:56 PM,19.0,12.9,77,30.41,10.0,NW,10.4,-,N/A,,Clear,320,2013-02-16 01:56:00
8:56 PM,16.0,12.0,84,30.41,10.0,NNW,6.9,-,N/A,,Clear,330,2013-02-16 02:56:00
9:56 PM,14.0,10.0,84,30.41,10.0,WNW,5.8,-,N/A,,Clear,290,2013-02-16 03:56:00
10:56 PM,12.0,8.1,84,30.40,10.0,West,5.8,-,N/A,,Clear,260,2013-02-16 04:56:00
11:56 PM,9.0,6.1,88,30.38,10.0,WSW,4.6,-,N/A,,Clear,240,2013-02-16 05:56:00